Farquhar Airport

Jump to: basic info | weather | runways | comments

Related pages: nearby airports | nearby navaids | notams | map

Basic information (top)

Codes: FSFA
Location: lon -10.109600, lat 51.176102, elev 10 ft / 3 m msl
Status: small_airport

Weather (top)

Current conditions for Prince Said Ibrahim International Airport 474nm (878km) W (rec'd 2014/11/23 15:00Z):

FMCH 231500Z 21006KT 9999 FEW022 BKN/// 28/23 Q1012 NOSIG

Airport forecast for Prince Said Ibrahim International Airport 474nm (878km) W (rec'd 2014/11/23 18:00Z):

TAF FMCH 231700Z 2318/2424 12004KT 9999 FEW020 
      BECMG 2405/2407 22010KT PROB30 
      TEMPO 2412/2418 4000 SHRA FEW020CB BKN030 
      BECMG 2418/2420 10004KT

Runways (top)

13/31: 3,035 x 75 ft (925 x 23 m) — paved — not lighted

Latest comments (top)

No comments yet for Farquhar Airport

More... (top)

See also NOTAMs and nearby airports and navaids, or visit the Farquhar Airport page at the main OurAirports website..